Klawock, AK

2:47 AM AKST on December 16, 2019 (GMT -0900)
Klawock

Weather History for PAKW - October, 2019

Change the Weather History Date:

Saturday, October 19, 2019

  Actual Average Record
Temperature  
Mean Temperature 46 °F -  
Max Temperature 51 °F 49 °F 57 °F (2002)
Min Temperature 41 °F 39 °F 30 °F (2004)
Degree Days  
Heating Degree Days 20    
Moisture  
Dew Point 41 °F    
Average Humidity 88    
Maximum Humidity 93    
Minimum Humidity 71    
Precipitation  
Precipitation 0.08 in - - ()
Sea Level Pressure  
Sea Level Pressure 29.60 in    
Wind  
Wind Speed 3 mph (East)    
Max Wind Speed 7 mph    
Max Gust Speed -    
Visibility 9 miles    
Events Rain    
Averages and records for this station are not official NWS values.
T = Trace of Precipitation, MM = Missing Value Source: NWS Daily Summary

Daily Weather History Graph

Daily Weather History Graph

Search for Another Location

Airport or City:

Astronomy

Oct. 19, 2019 Rise Set
Actual Time 7:30 AM AKDT 5:42 PM AKDT
Civil Twilight 6:53 AM AKDT 6:20 PM AKDT
Nautical Twilight 6:10 AM AKDT 7:02 PM AKDT
Astronomical Twilight 5:27 AM AKDT 7:45 PM AKDT
Moon 9:10 PM AKDT (10/19) 1:57 PM AKDT (10/19)
Length of Visible Light 11h 26m
Length of Day
10h 11m
Waning Gibbous, 68% of the Moon is Illuminated
Oct 19
Waning Gibbous
Oct 21
Last Quarter
Oct 27
New
Nov 4
First Quarter
Nov 12
Full

Hourly Weather History & Observations

Time (AKDT) Temp. Windchill Dew Point Humidity Pressure Visibility Wind Dir Wind Speed Gust Speed Precip Events Conditions
12:26 AM 43.0 °F - 41.0 °F 93% 29.50 in 10.0 mi Calm Calm - N/A   Overcast
12:53 AM 42.1 °F - 39.9 °F 92% 29.52 in 10.0 mi Calm Calm - N/A   Overcast
1:29 AM 42.1 °F 39.2 °F 39.9 °F 92% 29.52 in 10.0 mi NE 4.6 mph - N/A   Overcast
1:51 AM 42.8 °F 39.3 °F 39.2 °F 87% 29.53 in 10.0 mi NNE 5.8 mph - N/A   Overcast
2:53 AM 41.0 °F 39.0 °F 39.0 °F 93% 29.53 in 10.0 mi SE 3.5 mph - 0.01 in   Overcast
3:53 AM 42.1 °F - 39.9 °F 92% 29.51 in 10.0 mi Calm Calm - N/A   Overcast
4:53 AM 43.0 °F 41.3 °F 39.9 °F 89% 29.54 in 10.0 mi NE 3.5 mph - 0.00 in Rain Light Rain
6:01 AM 43.0 °F - 41.0 °F 93% 29.53 in 6.0 mi Calm Calm - 0.01 in Rain Light Rain
6:53 AM 43.0 °F 41.3 °F 41.0 °F 93% 29.56 in 10.0 mi SSE 3.5 mph - 0.04 in Rain Light Rain
7:15 AM 43.0 °F 41.3 °F 41.0 °F 93% 29.54 in 10.0 mi Variable 3.5 mph - 0.00 in Rain Light Rain
7:53 AM 43.0 °F 41.3 °F 41.0 °F 93% 29.58 in 10.0 mi ENE 3.5 mph - 0.00 in   Overcast
9:25 AM 44.1 °F - 42.1 °F 93% 29.60 in 10.0 mi Calm Calm - 0.00 in Rain Light Rain
9:41 AM 44.1 °F 41.5 °F 42.1 °F 93% 29.58 in 10.0 mi ENE 4.6 mph - 0.01 in Rain Light Rain
9:53 AM 44.1 °F 41.5 °F 42.1 °F 93% 29.61 in 7.0 mi North 4.6 mph - 0.01 in Rain Light Rain
10:34 AM 46.0 °F 44.8 °F 43.0 °F 89% 29.60 in 10.0 mi Variable 3.5 mph - 0.00 in   Overcast
10:51 AM 46.4 °F 45.2 °F 44.6 °F 93% 29.63 in 10.0 mi NNE 3.5 mph - 0.00 in   Overcast
10:53 AM 48.0 °F - 45.0 °F 89% 29.63 in 10.0 mi Variable 3.5 mph - 0.00 in   Overcast
11:44 AM 46.9 °F - 43.0 °F 86% 29.64 in 5.0 mi Calm Calm - 0.00 in Rain Light Rain
11:51 AM 46.4 °F 44.3 °F 42.8 °F 87% 29.64 in 2.0 mi South 4.6 mph - 0.02 in Rain Rain
11:53 AM 46.9 °F - 42.1 °F 83% 29.65 in 2.0 mi Variable 6.9 mph - 0.02 in Rain Rain
12:03 PM 46.9 °F - 43.0 °F 86% 29.64 in 5.0 mi Variable 3.5 mph - 0.00 in Rain Light Rain
12:28 PM 48.0 °F - 43.0 °F 83% 29.63 in 10.0 mi Calm Calm - 0.00 in   Overcast
12:53 PM 50.0 °F - 43.0 °F 77% 29.65 in 10.0 mi SE 5.8 mph - 0.00 in   Overcast
1:53 PM 50.0 °F - 41.0 °F 71% 29.63 in 10.0 mi SSE 6.9 mph - N/A   Scattered Clouds
2:53 PM 48.9 °F - 41.0 °F 74% 29.64 in 9.0 mi SSE 6.9 mph - 0.00 in Rain Light Rain
4:53 PM 46.9 °F - 42.1 °F 83% 29.64 in 10.0 mi SE 6.9 mph - 0.00 in Rain Light Rain
5:53 PM 46.0 °F 43.9 °F 41.0 °F 83% 29.66 in 10.0 mi SE 4.6 mph - 0.00 in   Overcast
6:53 PM 45.0 °F 42.6 °F 39.9 °F 82% 29.65 in 10.0 mi SSE 4.6 mph - N/A   Mostly Cloudy
8:53 PM 43.0 °F 40.3 °F 41.0 °F 93% 29.62 in 10.0 mi Variable 4.6 mph - N/A   Mostly Cloudy
9:53 PM 43.0 °F 41.3 °F 39.9 °F 89% 29.64 in 10.0 mi Variable 3.5 mph - N/A   Scattered Clouds
10:53 PM 43.0 °F 41.3 °F 39.9 °F 89% 29.63 in 10.0 mi North 3.5 mph - N/A   Overcast
11:53 PM 43.0 °F 39.5 °F 39.9 °F 89% 29.59 in 10.0 mi North 5.8 mph - N/A   Mostly Cloudy